Regional Weather Roundup
Issued by NWS Charleston, WV

Home | Current Version | Previous Version | Graphics & Text | Print | Product List | Glossary On
Versions: 1 2 3 4 5 6 7 8 9 10 11 12 13 14 15 16 17 18 19 20 21 22 23 24 25 26 27
000
ASUS41 KRLX 251210
RWRRLX
West Virginia Regional Weather Roundup
National Weather Service Charleston WV
800 AM EDT MON JUL 25 2016

Note: "fair" indicates few or no clouds below 12,000 feet with no
significant weather and/or obstructions to visibility.

WVZ003-251300-
Northern Panhandle of West Virginia

CITY           SKY/WX    TMP DP  RH WIND       PRES   REMARKS
WHEELING         N/A     79  72  79 SW6       30.00S
$$

WVZ009-251300-
Northwest West Virginia

CITY           SKY/WX    TMP DP  RH WIND       PRES   REMARKS
PARKERSBURG      N/A     79  74  84 S5        30.03S
$$

WVZ006-251300-
Western West Virginia

CITY           SKY/WX    TMP DP  RH WIND       PRES   REMARKS
HUNTINGTON       N/A     78  75  90 VRB5      30.03R
$$

WVZ015-251300-
West Central West Virginia

CITY           SKY/WX    TMP DP  RH WIND       PRES   REMARKS
CHARLESTON       N/A     76  73  91 CALM      30.04S
$$

WVZ022-031-251300-
North Central West Virginia

CITY           SKY/WX    TMP DP  RH WIND       PRES   REMARKS
CLARKSBURG       N/A     77  72  84 S3        30.03F
MORGANTOWN     PTSUNNY   76  71  85 CALM      30.04R
$$

WVZ025-035-042-045-251300-
Southern West Virginia

CITY           SKY/WX    TMP DP  RH WIND       PRES   REMARKS
BECKLEY          N/A     72  68  87 CALM      30.15S
LOGAN          FOG       73  73 100 CALM      30.08S VSB<1/4
BLUEFIELD        N/A     72  66  81 W6        30.18R
LEWISBURG        N/A     68  66  93 CALM      30.14S
$$

WVZ047-251300-
Northern Mountains of West Virginia

CITY           SKY/WX    TMP DP  RH WIND       PRES   REMARKS
ELKINS           N/A     73  68  84 CALM      30.11S
$$

WVZ052-251300-
Eastern Panhandle of West Virginia

CITY           SKY/WX    TMP DP  RH WIND       PRES   REMARKS
MARTINSBURG      N/A     75  71  87 S3        29.98F
PETERSBURG       N/A     75  72  89 CALM      30.03S
$$




USA.gov is the U.S. government's official web portal to all federal, state and local government web resources and services.